Weather History for Dalaman, Turkey

Change the Weather History Date:

Sunday, January 27, 2013

  Actual Average Record
Temperature  
Mean Temperature 51 °F -  
Max Temperature 54 °F 58 °F 64 °F (2005)
Min Temperature 48 °F 41 °F 32 °F (2000)
Degree Days  
Heating Degree Days 14    
Growing Degree Days 1 (Base 50)    
Moisture  
Dew Point 47 °F    
Average Humidity 86    
Maximum Humidity 94    
Minimum Humidity 72    
Precipitation  
Precipitation 0.20 in - - ()
Sea Level Pressure  
Sea Level Pressure 29.84 in    
Wind  
Wind Speed 9 mph ()    
Max Wind Speed 15 mph    
Max Gust Speed -    
Visibility 5.8 miles    
Events Rain , Thunderstorm    
Averages and records for this station are not official NWS values.
T = Trace of Precipitation, MM = Missing Value Source: Averaged Metar Reports

Daily Weather History Graph

Daily Weather History Graph

Search for Another Location

Airport:

Trip Planner

Search our weather history database for the weather conditions in past years. The results will help you decide how hot, cold, wet, or windy it might be!

Date:

Astronomy

Jan. 27, 2013 Rise Set
Actual Time 7:10 AM EET 5:25 PM EET
Civil Twilight 6:43 AM EET 5:52 PM EET
Nautical Twilight 6:11 AM EET 6:23 PM EET
Astronomical Twilight 5:41 AM EET 6:54 PM EET
Moon 5:57 PM EET (1/27) 6:54 AM EET (1/27)
Length of Visible Light 11h 09m
Length of Day
10h 14m
Full, 100% of the Moon is Illuminated
Jan 27
Full
Feb 3
Last Quarter
Feb 10
New
Feb 17
First Quarter
Feb 25
Full

Hourly Weather History & Observations

Time (EET) Temp. Dew Point Humidity Pressure Visibility Wind Dir Wind Speed Gust Speed Precip Events Conditions
12:20 AM 51.8 °F 48.2 °F 88% 29.74 in 6.2 mi NNE 11.5 mph - N/A   Mostly Cloudy
12:50 AM 51.8 °F 48.2 °F 88% 29.74 in 6.2 mi NE 10.4 mph - N/A Rain Light Rain Showers
1:20 AM 51.8 °F 46.4 °F 82% 29.74 in 6.2 mi ESE 12.7 mph - N/A Rain Rain Showers
1:50 AM 51.8 °F 46.4 °F 82% 29.74 in 6.2 mi East 11.5 mph - N/A Rain Light Rain Showers
2:00 AM 51 °F 46 °F 79% 29.76 in 6 mi East 11.5 mph - - Rain Light Rain Showers
2:20 AM 50.0 °F 46.4 °F 87% 29.74 in 6.2 mi North 9.2 mph - N/A   Mostly Cloudy
2:50 AM 50.0 °F 46.4 °F 87% 29.74 in 6.2 mi East 10.4 mph - N/A Rain Light Rain Showers
3:20 AM 51.8 °F 46.4 °F 82% 29.77 in 6.2 mi East 13.8 mph - N/A   Mostly Cloudy
3:50 AM 50.0 °F 48.2 °F 94% 29.77 in 4.3 mi NE 8.1 mph - N/A Rain , Thunderstorm Light Thunderstorms and Rain
4:20 AM 50.0 °F 46.4 °F 87% 29.77 in 6.2 mi ESE 9.2 mph - N/A Rain Light Rain Showers
4:50 AM 50.0 °F 48.2 °F 94% 29.80 in 6.2 mi North 15.0 mph - N/A Rain Light Rain Showers
5:20 AM 48.2 °F 46.4 °F 93% 29.80 in 6.2 mi NE 12.7 mph - N/A Rain Light Rain Showers
5:50 AM 50.0 °F 46.4 °F 87% 29.80 in 5.0 mi East 5.8 mph - N/A Rain Light Rain Showers
6:20 AM 48.2 °F 46.4 °F 93% 29.80 in 4.3 mi Variable 5.8 mph - N/A Rain Light Rain Showers
6:50 AM 48.2 °F 46.4 °F 93% 29.80 in 4.3 mi NNE 9.2 mph - N/A Rain Light Rain Showers
7:20 AM 48.2 °F 46.4 °F 93% 29.80 in 6.2 mi North 9.2 mph - N/A Rain Light Rain Showers
7:50 AM 48.2 °F 46.4 °F 93% 29.83 in 6.2 mi North 13.8 mph - N/A Rain Light Rain Showers
8:00 AM 48 °F 46 °F 90% 29.83 in 6 mi North 13.8 mph - - Rain Light Rain Showers
8:20 AM 48.2 °F 46.4 °F 93% 29.83 in 3.7 mi NE 13.8 mph - N/A Rain , Thunderstorm Thunderstorms and Rain
8:50 AM 50.0 °F 46.4 °F 87% 29.83 in 6.2 mi ESE 8.1 mph - N/A Rain Light Rain Showers
9:20 AM 50.0 °F 44.6 °F 82% 29.86 in 6.2 mi NNE 6.9 mph - N/A Rain Light Rain Showers
9:50 AM 50.0 °F 46.4 °F 87% 29.86 in 6.2 mi NE 9.2 mph - N/A   Mostly Cloudy
10:20 AM 50.0 °F 46.4 °F 87% 29.86 in 5.0 mi ENE 12.7 mph - N/A Rain , Thunderstorm Light Thunderstorms and Rain
10:50 AM 51.8 °F 48.2 °F 88% 29.86 in 6.2 mi North 6.9 mph - N/A   Mostly Cloudy
11:20 AM 53.6 °F 48.2 °F 82% 29.86 in 6.2 mi North 8.1 mph - N/A   Mostly Cloudy
11:50 AM 53.6 °F 48.2 °F 82% 29.86 in 6.2 mi North 12.7 mph - N/A   Mostly Cloudy
12:20 PM 53.6 °F 48.2 °F 82% 29.86 in 6.2 mi NNE 13.8 mph - N/A   Mostly Cloudy
12:50 PM 51.8 °F 48.2 °F 88% 29.86 in 6.2 mi North 13.8 mph - N/A Rain , Thunderstorm Light Thunderstorms and Rain
1:20 PM 50.0 °F 48.2 °F 94% 29.86 in 5.0 mi NE 11.5 mph - N/A Rain , Thunderstorm Light Thunderstorms and Rain
1:50 PM 50.0 °F 48.2 °F 94% 29.86 in 5.0 mi NNE 9.2 mph - N/A Rain , Thunderstorm Light Thunderstorms and Rain
2:00 PM 51 °F 47 °F 83% 29.88 in 6 mi NNE 9.2 mph - - Rain , Thunderstorm Thunderstorms and Rain
2:20 PM 51.8 °F 50.0 °F 94% 29.86 in 6.2 mi Variable 2.3 mph - N/A   Mostly Cloudy
2:50 PM 53.6 °F 46.4 °F 77% 29.86 in 6.2 mi East 6.9 mph - N/A   Mostly Cloudy
3:20 PM 53.6 °F 46.4 °F 77% 29.86 in 6.2 mi East 9.2 mph - N/A   Mostly Cloudy
3:50 PM 53.6 °F 46.4 °F 77% 29.86 in 6.2 mi East 11.5 mph - N/A   Mostly Cloudy
4:20 PM 53.6 °F 46.4 °F 77% 29.86 in 6.2 mi ESE 12.7 mph - N/A   Mostly Cloudy
4:50 PM 53.6 °F 44.6 °F 72% 29.86 in 6.2 mi East 12.7 mph - N/A   Mostly Cloudy
5:20 PM 53.6 °F 46.4 °F 77% 29.86 in 6.2 mi East 10.4 mph - N/A   Mostly Cloudy
5:50 PM 53.6 °F 46.4 °F 77% 29.86 in 6.2 mi East 11.5 mph - N/A   Mostly Cloudy
6:20 PM 53.6 °F 48.2 °F 82% 29.89 in 6.2 mi ESE 10.4 mph - N/A   Mostly Cloudy
6:50 PM 53.6 °F 46.4 °F 77% 29.89 in 6.2 mi East 9.2 mph - N/A   Mostly Cloudy
7:20 PM 53.6 °F 46.4 °F 77% 29.89 in 6.2 mi ENE 5.8 mph - N/A   Mostly Cloudy
7:50 PM 51.8 °F 48.2 °F 88% 29.89 in 3.7 mi NNE 10.4 mph - N/A Rain Light Rain Showers
8:00 PM 52 °F 48 °F 82% 29.92 in 4 mi NNE 10.4 mph - - Rain Light Rain Showers
8:20 PM 51.8 °F 48.2 °F 88% 29.92 in 6.2 mi NNE 12.7 mph - N/A   Mostly Cloudy
8:50 PM 50.0 °F 48.2 °F 94% 29.89 in 6.2 mi ENE 4.6 mph - N/A   Scattered Clouds
9:20 PM 50.0 °F 46.4 °F 87% 29.89 in 6.2 mi North 8.1 mph - N/A   Scattered Clouds
9:50 PM 50.0 °F 46.4 °F 87% 29.89 in 6.2 mi North 11.5 mph - N/A   Scattered Clouds
10:20 PM 48.2 °F 46.4 °F 93% 29.89 in 6.2 mi NNE 8.1 mph - N/A   Scattered Clouds
10:50 PM 48.2 °F 46.4 °F 93% 29.89 in 6.2 mi NE 4.6 mph - N/A   Mostly Cloudy
11:20 PM 48.2 °F 46.4 °F 93% 29.89 in 6.2 mi NNE 4.6 mph - N/A   Mostly Cloudy
11:50 PM 48.2 °F 46.4 °F 93% 29.92 in 6.2 mi ENE 4.6 mph - N/A   Mostly Cloudy